Regional Weather Roundup
Issued by NWS

Home | Current Version | Previous Version | Text Only | Print | Product List | Glossary Off
Versions: 1 2 3 4 5 6 7 8 9 10 11 12 13 14 15 16 17 18 19 20 21 22 23 24 25 26 27 28 29 30 31 32 33 34 35 36 37 38 39 40 41 42 43 44 45 46 47 48 49 50

000
ASUS44 KMEG 220410
RWRTN
TENNESSEE HOURLY STATE WEATHER ROUNDUP
NATIONAL WEATHER SERVICE MEMPHIS TN
1000 PM CST SAT JAN 21 2017

TNZ002-004-019-021-049-052-054-088>092-220500-
WEST TENNESSEE

CITY           SKY/WX    TMP DP  RH WIND       PRES   REMARKS
MEMPHIS INTL   CLOUDY    62  54  74 SE9       29.49F
NWS MEMPHIS      N/A     61 N/A N/A MISG        N/A
JACKSON        CLOUDY    58  53  84 E5        29.54F
DYERSBURG      CLOUDY    57  48  72 E6        29.53F
UNION CITY     CLEAR     57  52  82 CALM      29.55F
PARIS          CLEAR     55  48  76 CALM      29.58F
HUNTINGDON     CLEAR     57  52  82 NE3       29.56F
$$

TNZ008-025-027-028-033-062-065-066-220500-
NORTH MIDDLE TENNESSEE

CITY           SKY/WX    TMP DP  RH WIND       PRES   REMARKS
NASHVILLE      MOCLDY    59  50  72 S5        29.62S
PORTLAND       MOCLDY    57  50  77 CALM      29.62F
CLARKSVILLE    CLOUDY    57  48  72 SE7       29.60S
SMYRNA         PTCLDY    54  51  90 SW3       29.64R
GALLATIN       CLEAR     55  50  82 CALM      29.65S
CROSSVILLE     MOCLDY    48  46  93 CALM      29.68S
$$

TNZ061-075-076-078-094-096-097-220500-
SOUTH MIDDLE TENNESSEE

CITY           SKY/WX    TMP DP  RH WIND       PRES   REMARKS
TULLAHOMA      CLEAR     52  48  87 CALM      29.63F
WINCHESTER     CLEAR     54  50  87 SE3       29.63F
MCMINNVILLE    CLEAR     50  50 100 CALM      29.63F
COLUMBIA       CLEAR     57  57 100 CALM      29.57F
SHELBYVILLE    CLEAR     54  52  94 E3        29.63S
$$

TNZ017-018-042-046-047-220500-
NORTHEAST TENNESSEE

CITY           SKY/WX    TMP DP  RH WIND       PRES   REMARKS
TRI CITIES     CLOUDY    50  48  93 NE3       29.67S
ELIZABETHTON   CLOUDY    52  50  93 CALM      29.67S
$$

TNZ012-013-036-069-073-074-220500-
CENTRAL EAST TENNESSEE

CITY           SKY/WX    TMP DP  RH WIND       PRES   REMARKS
KNOXVILLE      PTCLDY    51  49  92 NW6       29.65S
OAK RIDGE      CLOUDY    52  50  93 CALM      29.68R
GATLINBURG     CLOUDY    46  45  93 CALM      29.64F VSB 1/4
MORRISTOWN     CLEAR     50  50 100 CALM      29.65S FOG
JACKSBORO      FOG       45  45 100 CALM      29.70R VSB 1/2
$$

TNZ083-085-099-220500-
SOUTHEAST TENNESSEE

CITY           SKY/WX    TMP DP  RH WIND       PRES   REMARKS
CHATTANOOGA    MOCLDY    58  53  84 E3        29.66S
$$

SKY/WX REPORTED AS FAIR MEANS FEW OR NO CLOUDS BELOW
12 THOUSAND FEET.





USA.gov is the U.S. government's official web portal to all federal, state and local government web resources and services.